Time,TemperatureF,DewpointF,PressureIn,WindDirection,WindDirectionDegrees,WindSpeedMPH,WindSpeedGustMPH,Humidity,HourlyPrecipIn,Conditions,Clouds,dailyrainin,SoftwareType,DateUTC
2013-09-19 00:00:00,55.0,50.6,30.16,NE,34,0.0,0.0,85,0.00,,,0.00,Wunderground v.1.12,2013-09-19 04:00:00,
2013-09-19 00:10:00,55.1,50.7,30.16,NE,34,0.0,0.0,85,0.00,,,0.00,Wunderground v.1.12,2013-09-19 04:10:00,
2013-09-19 00:19:00,55.1,50.7,30.16,WNW,283,0.0,0.0,85,0.00,,,0.00,Wunderground v.1.12,2013-09-19 04:19:00,
2013-09-19 00:30:00,55.3,50.9,30.16,WNW,283,0.0,0.0,85,0.00,,,0.00,Wunderground v.1.12,2013-09-19 04:30:00,
2013-09-19 00:39:00,55.3,50.9,30.16,WNW,283,0.0,0.0,85,0.00,,,0.00,Wunderground v.1.12,2013-09-19 04:39:00,
2013-09-19 00:49:00,55.3,50.9,30.16,WNW,283,0.0,0.0,85,0.00,,,0.00,Wunderground v.1.12,2013-09-19 04:49:00,
2013-09-19 01:00:00,55.1,51.0,30.16,WNW,283,0.0,0.0,86,0.00,,,0.00,Wunderground v.1.12,2013-09-19 05:00:00,
2013-09-19 01:10:00,55.1,51.0,30.16,WNW,283,0.0,0.0,86,0.00,,,0.00,Wunderground v.1.12,2013-09-19 05:10:00,
2013-09-19 01:19:00,55.0,50.9,30.16,WNW,283,0.0,0.0,86,0.00,,,0.00,Wunderground v.1.12,2013-09-19 05:19:00,
2013-09-19 01:30:00,54.8,51.0,30.16,WNW,283,0.0,0.0,87,0.00,,,0.00,Wunderground v.1.12,2013-09-19 05:30:00,
2013-09-19 01:39:00,54.7,50.9,30.16,WNW,283,0.0,0.0,87,0.00,,,0.00,Wunderground v.1.12,2013-09-19 05:39:00,
2013-09-19 01:49:00,54.5,51.0,30.16,WNW,283,0.0,0.0,88,0.00,,,0.00,Wunderground v.1.12,2013-09-19 05:49:00,
2013-09-19 02:00:00,54.5,51.0,30.16,WNW,283,0.0,0.0,88,0.00,,,0.00,Wunderground v.1.12,2013-09-19 06:00:00,
2013-09-19 02:10:00,54.4,50.9,30.16,WNW,283,0.0,0.0,88,0.00,,,0.00,Wunderground v.1.12,2013-09-19 06:10:00,
2013-09-19 02:20:00,54.2,50.7,30.15,WNW,283,0.0,0.0,88,0.00,,,0.00,Wunderground v.1.12,2013-09-19 06:20:00,
2013-09-19 02:29:00,54.1,50.9,30.15,WNW,283,0.0,0.0,89,0.00,,,0.00,Wunderground v.1.12,2013-09-19 06:29:00,
2013-09-19 02:40:00,53.8,50.6,30.15,WNW,283,0.0,0.0,89,0.00,,,0.00,Wunderground v.1.12,2013-09-19 06:40:00,
2013-09-19 02:50:00,53.6,50.4,30.15,WNW,283,0.0,0.0,89,0.00,,,0.00,Wunderground v.1.12,2013-09-19 06:50:00,
2013-09-19 02:59:00,53.5,50.3,30.15,WNW,283,0.0,0.0,89,0.00,,,0.00,Wunderground v.1.12,2013-09-19 06:59:00,
2013-09-19 03:10:00,53.3,50.4,30.15,WNW,283,0.0,0.0,90,0.00,,,0.00,Wunderground v.1.12,2013-09-19 07:10:00,
2013-09-19 03:20:00,53.1,50.2,30.14,WNW,283,0.0,0.0,90,0.00,,,0.00,Wunderground v.1.12,2013-09-19 07:20:00,
2013-09-19 03:30:00,52.9,50.0,30.14,WNW,283,0.0,0.0,90,0.00,,,0.00,Wunderground v.1.12,2013-09-19 07:30:00,
2013-09-19 03:40:00,52.8,50.2,30.14,WNW,283,0.0,0.0,91,0.00,,,0.00,Wunderground v.1.12,2013-09-19 07:40:00,
2013-09-19 03:49:00,52.6,50.0,30.14,WNW,283,0.0,0.0,91,0.00,,,0.00,Wunderground v.1.12,2013-09-19 07:49:00,
2013-09-19 04:00:00,52.5,49.9,30.14,WNW,283,0.0,0.0,91,0.00,,,0.00,Wunderground v.1.12,2013-09-19 08:00:00,
2013-09-19 04:10:00,52.3,49.8,30.14,WNW,283,0.0,0.0,91,0.00,,,0.00,Wunderground v.1.12,2013-09-19 08:10:00,
2013-09-19 04:19:00,52.0,49.5,30.14,WNW,283,0.0,0.0,91,0.00,,,0.00,Wunderground v.1.12,2013-09-19 08:19:00,
2013-09-19 04:30:00,51.9,49.4,30.14,WNW,283,0.0,0.0,91,0.00,,,0.00,Wunderground v.1.12,2013-09-19 08:30:00,
2013-09-19 04:40:00,51.7,49.5,30.13,WNW,283,0.0,0.0,92,0.00,,,0.00,Wunderground v.1.12,2013-09-19 08:40:00,
2013-09-19 04:49:00,51.6,49.4,30.14,WNW,283,0.0,0.0,92,0.00,,,0.00,Wunderground v.1.12,2013-09-19 08:49:00,
2013-09-19 05:00:00,51.6,49.4,30.14,WNW,283,0.0,0.0,92,0.00,,,0.00,Wunderground v.1.12,2013-09-19 09:00:00,
2013-09-19 05:10:00,51.6,49.4,30.14,WNW,283,0.0,0.0,92,0.00,,,0.00,Wunderground v.1.12,2013-09-19 09:10:00,
2013-09-19 05:20:00,51.6,49.4,30.14,WNW,283,0.0,0.0,92,0.00,,,0.00,Wunderground v.1.12,2013-09-19 09:20:00,
2013-09-19 05:29:00,51.4,49.2,30.14,WNW,283,0.0,0.0,92,0.00,,,0.00,Wunderground v.1.12,2013-09-19 09:29:00,
2013-09-19 05:39:00,51.3,49.1,30.14,WNW,283,0.0,0.0,92,0.00,,,0.00,Wunderground v.1.12,2013-09-19 09:39:00,
2013-09-19 05:50:00,51.1,48.9,30.14,WNW,283,0.0,0.0,92,0.00,,,0.00,Wunderground v.1.12,2013-09-19 09:50:00,
2013-09-19 05:59:00,51.1,49.1,30.14,WNW,283,0.0,0.0,93,0.00,,,0.00,Wunderground v.1.12,2013-09-19 09:59:00,
2013-09-19 06:10:00,51.0,49.0,30.14,WNW,283,0.0,0.0,93,0.00,,,0.00,Wunderground v.1.12,2013-09-19 10:10:00,
2013-09-19 06:19:00,51.0,49.0,30.14,WNW,283,0.0,0.0,93,0.00,,,0.00,Wunderground v.1.12,2013-09-19 10:19:00,
2013-09-19 06:30:00,51.0,49.0,30.14,WNW,283,0.0,0.0,93,0.00,,,0.00,Wunderground v.1.12,2013-09-19 10:30:00,
2013-09-19 06:40:00,50.8,48.8,30.14,WNW,283,0.0,0.0,93,0.00,,,0.00,Wunderground v.1.12,2013-09-19 10:40:00,
2013-09-19 06:49:00,50.8,48.8,30.15,WNW,283,0.0,0.0,93,0.00,,,0.00,Wunderground v.1.12,2013-09-19 10:49:00,
2013-09-19 07:00:00,50.8,48.8,30.15,WNW,283,0.0,0.0,93,0.00,,,0.00,Wunderground v.1.12,2013-09-19 11:00:00,
2013-09-19 07:10:00,50.8,48.8,30.15,WNW,283,0.0,0.0,93,0.00,,,0.00,Wunderground v.1.12,2013-09-19 11:10:00,
2013-09-19 07:19:00,50.8,49.1,30.15,WNW,283,0.0,0.0,94,0.00,,,0.00,Wunderground v.1.12,2013-09-19 11:19:00,
2013-09-19 07:30:00,51.0,49.3,30.15,WNW,283,0.0,0.0,94,0.00,,,0.00,Wunderground v.1.12,2013-09-19 11:30:00,
2013-09-19 07:40:00,51.1,49.4,30.15,WNW,283,0.0,0.0,94,0.00,,,0.00,Wunderground v.1.12,2013-09-19 11:40:00,
2013-09-19 07:49:00,51.4,49.7,30.15,WNW,283,0.0,0.0,94,0.00,,,0.00,Wunderground v.1.12,2013-09-19 11:49:00,
2013-09-19 08:00:00,51.9,50.2,30.15,WNW,283,0.0,0.0,94,0.00,,,0.00,Wunderground v.1.12,2013-09-19 12:00:00,
2013-09-19 08:09:00,52.8,51.4,30.15,WNW,283,0.0,0.0,95,0.00,,,0.00,Wunderground v.1.12,2013-09-19 12:09:00,
2013-09-19 08:19:00,54.2,52.8,30.15,WNW,283,0.0,0.0,95,0.00,,,0.00,Wunderground v.1.12,2013-09-19 12:19:00,
2013-09-19 08:30:00,55.6,54.2,30.15,WNW,283,0.0,0.0,95,0.00,,,0.00,Wunderground v.1.12,2013-09-19 12:30:00,
2013-09-19 08:39:00,56.9,55.5,30.15,WNW,283,0.0,0.0,95,0.00,,,0.00,Wunderground v.1.12,2013-09-19 12:39:00,
2013-09-19 08:49:00,59.5,58.1,30.15,WNW,283,0.0,0.0,95,0.00,,,0.00,Wunderground v.1.12,2013-09-19 12:49:00,
2013-09-19 09:00:00,62.7,58.8,30.15,WNW,283,0.0,0.0,87,0.00,,,0.00,Wunderground v.1.12,2013-09-19 13:00:00,
2013-09-19 09:09:00,65.8,58.0,30.15,WNW,283,0.0,0.0,76,0.00,,,0.00,Wunderground v.1.12,2013-09-19 13:09:00,
2013-09-19 09:19:00,65.3,57.2,30.15,West,279,0.0,0.0,75,0.00,,,0.00,Wunderground v.1.12,2013-09-19 13:19:00,
2013-09-19 09:30:00,67.1,56.6,30.15,South,171,0.0,0.0,69,0.00,,,0.00,Wunderground v.1.12,2013-09-19 13:30:00,
2013-09-19 09:39:00,68.6,57.2,30.15,SW,215,0.0,0.0,67,0.00,,,0.00,Wunderground v.1.12,2013-09-19 13:39:00,
2013-09-19 09:49:00,69.3,56.2,30.15,WSW,241,0.0,0.0,63,0.00,,,0.00,Wunderground v.1.12,2013-09-19 13:49:00,
2013-09-19 10:00:00,69.6,57.3,30.15,WSW,242,0.0,0.0,65,0.00,,,0.00,Wunderground v.1.12,2013-09-19 14:00:00,
2013-09-19 10:09:00,70.9,57.2,30.15,ESE,107,0.0,0.0,62,0.00,,,0.00,Wunderground v.1.12,2013-09-19 14:09:00,
2013-09-19 10:19:00,70.6,55.6,30.15,West,262,1.0,1.0,59,0.00,,,0.00,Wunderground v.1.12,2013-09-19 14:19:00,
2013-09-19 10:29:00,70.6,55.6,30.15,SW,233,0.0,0.0,59,0.00,,,0.00,Wunderground v.1.12,2013-09-19 14:29:00,
2013-09-19 10:39:00,71.3,55.8,30.16,WSW,248,1.0,1.0,58,0.00,,,0.00,Wunderground v.1.12,2013-09-19 14:39:00,
2013-09-19 10:49:00,71.6,56.5,30.16,West,269,0.0,5.0,59,0.00,,,0.00,Wunderground v.1.12,2013-09-19 14:49:00,
2013-09-19 11:00:00,73.7,55.5,30.16,WSW,254,1.0,1.0,53,0.00,,,0.00,Wunderground v.1.12,2013-09-19 15:00:00,
2013-09-19 11:10:00,73.7,54.4,30.16,West,271,1.0,1.0,51,0.00,,,0.00,Wunderground v.1.12,2013-09-19 15:10:00,
2013-09-19 11:19:00,74.6,54.2,30.15,SSW,203,0.0,0.0,49,0.00,,,0.00,Wunderground v.1.12,2013-09-19 15:19:00,
2013-09-19 11:30:00,74.7,53.1,30.15,SW,219,1.0,1.0,47,0.00,,,0.00,Wunderground v.1.12,2013-09-19 15:30:00,
2013-09-19 11:40:00,73.5,52.6,30.15,WSW,250,1.0,1.0,48,0.00,,,0.00,Wunderground v.1.12,2013-09-19 15:40:00,
2013-09-19 11:50:00,74.0,53.1,30.14,WSW,242,0.0,0.0,48,0.00,,,0.00,Wunderground v.1.12,2013-09-19 15:50:00,
2013-09-19 12:00:00,74.4,53.4,30.14,West,273,0.0,0.0,48,0.00,,,0.00,Wunderground v.1.12,2013-09-19 16:00:00,
2013-09-19 12:10:00,76.3,54.6,30.14,North,355,0.0,5.0,47,0.00,,,0.00,Wunderground v.1.12,2013-09-19 16:10:00,
2013-09-19 12:19:00,77.4,55.6,30.14,NE,45,0.0,5.0,47,0.00,,,0.00,Wunderground v.1.12,2013-09-19 16:19:00,
2013-09-19 12:30:00,77.9,56.6,30.14,SE,144,0.0,5.0,48,0.00,,,0.00,Wunderground v.1.12,2013-09-19 16:30:00,
2013-09-19 12:39:00,77.7,58.7,30.13,NE,49,1.0,5.0,52,0.00,,,0.00,Wunderground v.1.12,2013-09-19 16:39:00,
2013-09-19 12:50:00,77.4,57.9,30.12,NNE,33,1.0,1.0,51,0.00,,,0.00,Wunderground v.1.12,2013-09-19 16:50:00,
2013-09-19 13:00:00,76.5,58.6,30.12,ESE,114,0.0,5.0,54,0.00,,,0.00,Wunderground v.1.12,2013-09-19 17:00:00,
2013-09-19 13:09:00,76.1,57.7,30.11,ESE,107,0.0,5.0,53,0.00,,,0.00,Wunderground v.1.12,2013-09-19 17:09:00,
2013-09-19 13:20:00,75.4,58.1,30.11,NE,49,0.0,5.0,55,0.00,,,0.00,Wunderground v.1.12,2013-09-19 17:20:00,
2013-09-19 13:29:00,74.7,56.9,30.11,ENE,70,0.0,5.0,54,0.00,,,0.00,Wunderground v.1.12,2013-09-19 17:29:00,
2013-09-19 13:39:00,73.9,57.2,30.11,East,97,0.0,5.0,56,0.00,,,0.00,Wunderground v.1.12,2013-09-19 17:39:00,
2013-09-19 13:49:00,73.9,56.7,30.10,ESE,113,0.0,5.0,55,0.00,,,0.00,Wunderground v.1.12,2013-09-19 17:49:00,
2013-09-19 14:00:00,73.0,57.3,30.10,ESE,119,0.0,5.0,58,0.00,,,0.00,Wunderground v.1.12,2013-09-19 18:00:00,
2013-09-19 14:09:00,73.5,56.8,30.09,SE,136,0.0,5.0,56,0.00,,,0.00,Wunderground v.1.12,2013-09-19 18:09:00,
2013-09-19 14:20:00,72.7,57.1,30.09,NE,38,1.0,5.0,58,0.00,,,0.00,Wunderground v.1.12,2013-09-19 18:20:00,
2013-09-19 14:29:00,72.3,56.7,30.09,NE,47,1.0,5.0,58,0.00,,,0.00,Wunderground v.1.12,2013-09-19 18:29:00,
2013-09-19 14:40:00,72.5,56.9,30.08,NE,42,1.0,1.0,58,0.00,,,0.00,Wunderground v.1.12,2013-09-19 18:40:00,
2013-09-19 14:50:00,72.7,56.6,30.08,SE,142,0.0,5.0,57,0.00,,,0.00,Wunderground v.1.12,2013-09-19 18:50:00,
2013-09-19 15:00:00,72.8,56.2,30.08,ESE,119,0.0,5.0,56,0.00,,,0.00,Wunderground v.1.12,2013-09-19 19:00:00,
2013-09-19 15:10:00,73.0,55.9,30.08,NE,49,0.0,5.0,55,0.00,,,0.00,Wunderground v.1.12,2013-09-19 19:10:00,
2013-09-19 15:20:00,73.3,55.6,30.07,NE,51,0.0,5.0,54,0.00,,,0.00,Wunderground v.1.12,2013-09-19 19:20:00,
2013-09-19 15:30:00,73.9,55.7,30.07,SSE,159,0.0,5.0,53,0.00,,,0.00,Wunderground v.1.12,2013-09-19 19:30:00,
2013-09-19 15:40:00,73.7,55.5,30.07,ESE,122,1.0,5.0,53,0.00,,,0.00,Wunderground v.1.12,2013-09-19 19:40:00,
2013-09-19 15:50:00,73.9,56.7,30.06,ENE,63,1.0,1.0,55,0.00,,,0.00,Wunderground v.1.12,2013-09-19 19:50:00,
2013-09-19 15:59:00,74.2,56.0,30.06,NE,38,1.0,1.0,53,0.00,,,0.00,Wunderground v.1.12,2013-09-19 19:59:00,
2013-09-19 16:10:00,73.9,56.7,30.06,NE,41,1.0,2.0,55,0.00,,,0.00,Wunderground v.1.12,2013-09-19 20:10:00,
2013-09-19 16:20:00,73.5,56.3,30.06,ENE,68,1.0,1.0,55,0.00,,,0.00,Wunderground v.1.12,2013-09-19 20:20:00,
2013-09-19 16:30:00,73.5,56.3,30.06,NE,49,0.0,1.0,55,0.00,,,0.00,Wunderground v.1.12,2013-09-19 20:30:00,
2013-09-19 16:40:00,73.7,57.0,30.05,North,360,1.0,1.0,56,0.00,,,0.00,Wunderground v.1.12,2013-09-19 20:40:00,
2013-09-19 16:49:00,73.9,56.7,30.05,NNE,19,0.0,0.0,55,0.00,,,0.00,Wunderground v.1.12,2013-09-19 20:49:00,
2013-09-19 17:00:00,74.4,56.7,30.05,NNE,17,1.0,1.0,54,0.00,,,0.00,Wunderground v.1.12,2013-09-19 21:00:00,
2013-09-19 17:10:00,74.7,56.9,30.05,SSE,147,0.0,7.0,54,0.00,,,0.00,Wunderground v.1.12,2013-09-19 21:10:00,
2013-09-19 17:19:00,74.4,57.2,30.05,NE,43,0.0,7.0,55,0.00,,,0.00,Wunderground v.1.12,2013-09-19 21:19:00,
2013-09-19 17:30:00,74.2,58.0,30.05,NE,44,0.0,7.0,57,0.00,,,0.00,Wunderground v.1.12,2013-09-19 21:30:00,
2013-09-19 17:40:00,73.7,58.0,30.05,SE,127,0.0,7.0,58,0.00,,,0.00,Wunderground v.1.12,2013-09-19 21:40:00,
2013-09-19 17:49:00,73.0,57.8,30.05,SE,128,0.0,7.0,59,0.00,,,0.00,Wunderground v.1.12,2013-09-19 21:49:00,
2013-09-19 18:00:00,72.3,57.2,30.05,SE,128,0.0,7.0,59,0.00,,,0.00,Wunderground v.1.12,2013-09-19 22:00:00,
2013-09-19 18:10:00,71.6,57.0,30.05,SE,128,0.0,7.0,60,0.00,,,0.00,Wunderground v.1.12,2013-09-19 22:10:00,
2013-09-19 18:20:00,71.1,57.0,30.05,SE,128,0.0,7.0,61,0.00,,,0.00,Wunderground v.1.12,2013-09-19 22:20:00,
2013-09-19 18:30:00,70.8,57.1,30.05,ESE,123,0.0,7.0,62,0.00,,,0.00,Wunderground v.1.12,2013-09-19 22:30:00,
2013-09-19 18:40:00,70.4,57.2,30.05,ESE,123,0.0,7.0,63,0.00,,,0.00,Wunderground v.1.12,2013-09-19 22:40:00,
2013-09-19 18:49:00,70.1,57.8,30.06,ESE,123,0.0,7.0,65,0.00,,,0.00,Wunderground v.1.12,2013-09-19 22:49:00,
2013-09-19 18:59:00,69.6,57.7,30.06,ESE,123,0.0,7.0,66,0.00,,,0.00,Wunderground v.1.12,2013-09-19 22:59:00,
2013-09-19 19:09:00,69.3,57.9,30.06,ESE,123,0.0,7.0,67,0.00,,,0.00,Wunderground v.1.12,2013-09-19 23:09:00,
2013-09-19 19:19:00,68.9,57.9,30.06,ESE,123,0.0,7.0,68,0.00,,,0.00,Wunderground v.1.12,2013-09-19 23:19:00,
2013-09-19 19:30:00,68.6,58.0,30.06,ESE,123,0.0,7.0,69,0.00,,,0.00,Wunderground v.1.12,2013-09-19 23:30:00,
2013-09-19 19:40:00,68.1,57.9,30.06,ESE,123,0.0,7.0,70,0.00,,,0.00,Wunderground v.1.12,2013-09-19 23:40:00,
2013-09-19 19:59:00,66.8,57.9,30.06,ESE,123,0.0,7.0,73,0.00,,,0.00,Wunderground v.1.12,2013-09-19 23:59:00,
2013-09-19 20:09:00,66.1,57.9,30.06,ESE,123,0.0,0.0,75,0.00,,,0.00,Wunderground v.1.12,2013-09-20 00:09:00,
2013-09-19 20:20:00,65.5,57.7,30.06,ESE,123,0.0,0.0,76,0.00,,,0.00,Wunderground v.1.12,2013-09-20 00:20:00,
2013-09-19 20:29:00,65.0,57.6,30.06,ESE,123,0.0,0.0,77,0.00,,,0.00,Wunderground v.1.12,2013-09-20 00:29:00,
2013-09-19 20:39:00,64.5,57.5,30.06,ESE,123,0.0,0.0,78,0.00,,,0.00,Wunderground v.1.12,2013-09-20 00:39:00,
2013-09-19 20:50:00,64.2,57.9,30.06,ESE,123,0.0,0.0,80,0.00,,,0.00,Wunderground v.1.12,2013-09-20 00:50:00,
2013-09-19 20:59:00,63.7,58.1,30.06,ESE,123,0.0,0.0,82,0.00,,,0.00,Wunderground v.1.12,2013-09-20 00:59:00,
2013-09-19 21:10:00,63.2,57.6,30.07,ESE,123,0.0,0.0,82,0.00,,,0.00,Wunderground v.1.12,2013-09-20 01:10:00,
2013-09-19 21:20:00,62.9,57.7,30.06,ESE,123,0.0,0.0,83,0.00,,,0.00,Wunderground v.1.12,2013-09-20 01:20:00,
2013-09-19 21:29:00,62.7,57.5,30.06,ESE,123,0.0,0.0,83,0.00,,,0.00,Wunderground v.1.12,2013-09-20 01:29:00,
2013-09-19 21:40:00,62.6,57.4,30.06,ESE,123,0.0,0.0,83,0.00,,,0.00,Wunderground v.1.12,2013-09-20 01:40:00,
2013-09-19 21:50:00,62.4,57.2,30.06,ESE,123,0.0,0.0,83,0.00,,,0.00,Wunderground v.1.12,2013-09-20 01:50:00,
2013-09-19 22:00:00,62.3,57.1,30.06,ESE,123,0.0,0.0,83,0.00,,,0.00,Wunderground v.1.12,2013-09-20 02:00:00,
2013-09-19 22:10:00,62.0,56.8,30.05,ESE,123,0.0,0.0,83,0.00,,,0.00,Wunderground v.1.12,2013-09-20 02:10:00,
2013-09-19 22:19:00,61.6,56.7,30.05,ESE,123,0.0,0.0,84,0.00,,,0.00,Wunderground v.1.12,2013-09-20 02:19:00,
2013-09-19 22:30:00,61.3,56.4,30.05,ESE,123,0.0,0.0,84,0.00,,,0.00,Wunderground v.1.12,2013-09-20 02:30:00,
2013-09-19 22:40:00,61.0,56.5,30.05,ESE,123,0.0,0.0,85,0.00,,,0.00,Wunderground v.1.12,2013-09-20 02:40:00,
2013-09-19 22:50:00,60.7,56.2,30.05,ESE,123,0.0,0.0,85,0.00,,,0.00,Wunderground v.1.12,2013-09-20 02:50:00,
2013-09-19 23:00:00,60.4,55.9,30.05,ESE,123,0.0,0.0,85,0.00,,,0.00,Wunderground v.1.12,2013-09-20 03:00:00,
2013-09-19 23:09:00,60.1,55.9,30.05,ESE,123,0.0,0.0,86,0.00,,,0.00,Wunderground v.1.12,2013-09-20 03:09:00,
2013-09-19 23:19:00,59.8,55.6,30.05,ESE,123,0.0,0.0,86,0.00,,,0.00,Wunderground v.1.12,2013-09-20 03:19:00,
2013-09-19 23:30:00,59.5,55.3,30.05,ESE,123,0.0,0.0,86,0.00,,,0.00,Wunderground v.1.12,2013-09-20 03:30:00,
2013-09-19 23:39:00,59.3,55.4,30.05,ESE,123,0.0,0.0,87,0.00,,,0.00,Wunderground v.1.12,2013-09-20 03:39:00,
2013-09-19 23:50:00,59.0,55.1,30.05,ESE,123,0.0,0.0,87,0.00,,,0.00,Wunderground v.1.12,2013-09-20 03:50:00,
2013-09-19 23:59:00,58.9,55.4,30.05,ESE,123,0.0,0.0,88,0.00,,,0.00,Wunderground v.1.12,2013-09-20 03:59:00,